STARLINK-32789 (62529 NORAD) Tracking and Keplerian Element Data

This shows tracking and keplerian element data for the satellite.

Feedback or suggestion? Click here.




ElementValue
Catalog62529
NameSTARLINK-32789
Epoch Orbit544
Epoch Day35.33335648
Epoch Year2025
RAAN314.8051
Inclination42.9985
Eccentricity0.0001602
Argument of Perigee285.6378
Mean Anonmoly120.3634
Mean Motion15.50556324
Decay Rate0.00044197
L11 62529U 25004U 25035.33335648 .00044197 00000+0 75553-3 0 9997
L22 62529 42.9985 314.8051 0001602 285.6378 120.3634 15.50556324 5441



Live tracking and technical data element details for STARLINK-32789 (NORAD 62529). STARLINK-32789 can be tracked NOW for your location showing map with azimuth and elevation plus other details from your city location.







IsCatalogInMostPopularTable: catalog: 62529, numindb: 16
Update: records affected: 1



GetName: 62529 STARLINK-32789

Hit Count: updated at: Sat, 24 May 2025 15:40:26 GMT